Weather in Aiteke-Bi

Kazakhstan     45°50′49″N   62°09′04″E
temp.,
°C
wind,
m/s
gust,
m/s
humid.,
%
clouds,
%
prec.,
mm/h
press.,
hPa
HPBL,
m
17 may, tue
tue1723:00+24nw33215 0.0 100822
02:00+21n453259 0.0 100889
05:00+20nne4740100 0.0 1008125
08:00+23n683391 0.0 1008469
11:00+26n7728100 0.0 10081442
14:00+26n9829100 0.0 10081313
17:00+25nnw5531100 0.0 10091385
20:00+23nw683520 0.0 1009578
18 may, wed
wed1823:00+19wnw584976 0.0 1010243
02:00+19wnw4852100 0.0 1010439
05:00+18wnw2359100 0.0 1010144
08:00+20nnw453831 0.0 1012423
11:00+24wnw56262 0.0 10122328
14:00+26w88203 0.0 10122680
17:00+24w99221 0.0 10132074
20:00+21w672712 0.0 1014678
19 may, thu
thu1923:00+19wsw4837100 0.0 1015295
02:00+17w484911 0.0 1016226
05:00+16w22615 0.0 101628
08:00+20wsw234663 0.0 1017335
11:00+25w463176 0.0 10171919
14:00+27wnw562412 0.0 10162769
17:00+27nw6623100 0.0 10162616
20:00+25nnw56297 0.0 1016540
20 may, fri
fri2023:00+21nne23370 0.0 101649
02:00+21ese34370 0.0 101446
05:00+19se46360 0.0 101376
08:00+24sse57265 0.0 1013335
11:00+29s56195 0.0 10111929
14:00+31ssw67150 0.0 10083009
17:00+31wsw881354 0.0 10062882
20:00+27wsw4620100 0.0 1005247
21 may, sat
sat2123:00+20nw101354100 0.0 1006537
02:00+17wnw7967100 0.0 1005732
05:00+14nw9977100 0.8 1005831
08:00+13nw7973100 1.5 1008937
11:00+16nw101244100 1.8 10092076
14:00+16wnw111335100 0.0 10112272
17:00+17wnw1013305 0.0 10122777
20:00+16wnw710244 0.0 10141287